• In Uzbekistan
  • List of Countries
  • For 7 days
  • Water Temperature
  • Satellite Maps
  • Weather Map
  • Weather Widgets
  • user-avatar
    Login

    Hourly Weather Artashat

    Today, 24 February, Friday

    Time Temperature Precipitation Wind Pressure Humidity
    00:00 -13°C° 0 mm 2 mps 597 mmHg 82%
    01:00 -13°C° 0 mm 2 mps 597 mmHg 82%
    02:00 -13°C° 0 mm 2 mps 597 mmHg 82%
    03:00 -13°C° 0 mm 2 mps 597 mmHg 80%
    04:00 -13°C° 0 mm 2 mps 597 mmHg 80%
    05:00 -13°C° 0 mm 2 mps 597 mmHg 80%
    06:00 -14°C° 0 mm 2 mps 597 mmHg 80%
    07:00 -10°C° 0 mm 2 mps 598 mmHg 80%
    08:00 -8°C° 0 mm 2 mps 600 mmHg 80%
    09:00 -6°C° 0 mm 2 mps 601 mmHg 79%
    10:00 -5°C° 0 mm 2 mps 601 mmHg 82%
    11:00 -4°C° 0 mm 2 mps 601 mmHg 84%
    12:00 -3°C° 0 mm 2 mps 601 mmHg 87%
    13:00 -3°C° 0 mm 2 mps 601 mmHg 89%
    14:00 -1°C° 0 mm 1 mps 601 mmHg 90%
    15:00 0°C° 0 mm 1 mps 601 mmHg 91%
    16:00 -3°C° 0 mm 1 mps 600 mmHg 91%
    17:00 -7°C° 0 mm 1 mps 599 mmHg 91%
    18:00 -10°C° 0 mm 1 mps 598 mmHg 90%
    19:00 -10°C° 0 mm 1 mps 598 mmHg 87%
    20:00 -10°C° 0 mm 1 mps 599 mmHg 85%
    21:00 -11°C° 0 mm 1 mps 599 mmHg 82%
    22:00 -11°C° 0 mm 1 mps 599 mmHg 79%
    23:00 -11°C° 0 mm 1 mps 599 mmHg 76%

    Tomorrow, 25 February, Saturday

    Time Temperature Precipitation Wind Pressure Humidity
    00:00 -11°C° 0 mm 1 mps 599 mmHg 73%
    01:00 -11°C° 0 mm 1 mps 599 mmHg 72%
    02:00 -11°C° 0 mm 1 mps 599 mmHg 70%
    03:00 -11°C° 0 mm 1 mps 599 mmHg 69%
    04:00 -12°C° 0 mm 1 mps 599 mmHg 68%
    05:00 -12°C° 0 mm 1 mps 599 mmHg 68%
    06:00 -12°C° 0 mm 1 mps 599 mmHg 68%
    07:00 -9°C° 0 mm 1 mps 600 mmHg 69%
    08:00 -6°C° 0 mm 1 mps 602 mmHg 69%
    09:00 -3°C° 0 mm 1 mps 603 mmHg 70%
    10:00 -2°C° 0 mm 1 mps 603 mmHg 74%
    11:00 0°C° 0 mm 1 mps 603 mmHg 77%
    12:00 +1°C° 0 mm 1 mps 603 mmHg 81%
    13:00 +1°C° 0 mm 1 mps 603 mmHg 83%
    14:00 +1°C° 0 mm 1 mps 602 mmHg 85%
    15:00 +1°C° 0 mm 1 mps 602 mmHg 87%
    16:00 -2°C° 0 mm 1 mps 600 mmHg 86%
    17:00 -7°C° 0 mm 1 mps 599 mmHg 86%
    18:00 -10°C° 0 mm 1 mps 597 mmHg 86%
    19:00 -10°C° 0 mm 1 mps 598 mmHg 82%
    20:00 -10°C° 0 mm 1 mps 598 mmHg 78%
    21:00 -12°C° 0 mm 2 mps 598 mmHg 75%
    22:00 -12°C° 0 mm 2 mps 598 mmHg 73%
    23:00 -12°C° 0 mm 2 mps 598 mmHg 70%

    Day after tomorrow, 26 February, Sunday

    Time Temperature Precipitation Wind Pressure Humidity
    00:00 -10°C° 0 mm 2 mps 599 mmHg 68%
    01:00 -10°C° 0 mm 2 mps 598 mmHg 69%
    02:00 -10°C° 0 mm 2 mps 598 mmHg 69%
    03:00 -10°C° 0 mm 2 mps 598 mmHg 70%
    04:00 -12°C° 0 mm 2 mps 598 mmHg 70%
    05:00 -12°C° 0 mm 2 mps 598 mmHg 71%
    06:00 -12°C° 0 mm 2 mps 598 mmHg 72%
    07:00 -9°C° 0 mm 2 mps 599 mmHg 72%
    08:00 -6°C° 0 mm 1 mps 600 mmHg 72%
    09:00 -2°C° 0 mm 1 mps 601 mmHg 72%
    10:00 -1°C° 0 mm 1 mps 601 mmHg 75%
    11:00 0°C° 0 mm 1 mps 600 mmHg 78%
    12:00 +1°C° 0 mm 1 mps 600 mmHg 82%
    13:00 +1°C° 0 mm 1 mps 600 mmHg 83%
    14:00 +1°C° 0 mm 1 mps 600 mmHg 85%
    15:00 +1°C° 0 mm 1 mps 599 mmHg 86%
    16:00 -2°C° 0 mm 1 mps 598 mmHg 87%
    17:00 -6°C° 0 mm 1 mps 597 mmHg 88%
    18:00 -9°C° 0 mm 1 mps 596 mmHg 89%
    19:00 -9°C° 0 mm 1 mps 596 mmHg 87%
    20:00 -9°C° 0 mm 1 mps 596 mmHg 86%
    21:00 -9°C° 0 mm 1 mps 596 mmHg 85%
    22:00 -9°C° 0 mm 1 mps 596 mmHg 84%
    23:00 -10°C° 0 mm 1 mps 596 mmHg 83%

    27 February, Monday

    Time Temperature Precipitation Wind Pressure Humidity
    00:00 -10°C° 0 mm 1 mps 596 mmHg 81%
    01:00 -10°C° 0 mm 1 mps 596 mmHg 81%
    02:00 -10°C° 0 mm 0 mps 596 mmHg 81%
    03:00 -11°C° 0 mm 0 mps 596 mmHg 81%
    04:00 -11°C° 0 mm 0 mps 596 mmHg 81%
    05:00 -11°C° 0 mm 0 mps 596 mmHg 81%
    06:00 -11°C° 0 mm 0 mps 596 mmHg 80%
    07:00 -8°C° 0 mm 0 mps 598 mmHg 78%
    08:00 -4°C° 0 mm 1 mps 600 mmHg 75%
    09:00 -1°C° 0 mm 1 mps 602 mmHg 72%
    10:00 0°C° 0 mm 1 mps 602 mmHg 75%
    11:00 0°C° 0 mm 1 mps 601 mmHg 79%
    12:00 +1°C° 0 mm 1 mps 601 mmHg 82%
    13:00 +1°C° 0 mm 1 mps 601 mmHg 83%
    14:00 +1°C° 0 mm 1 mps 601 mmHg 84%
    15:00 +1°C° 0 mm 1 mps 601 mmHg 85%
    16:00 -1°C° 0 mm 1 mps 599 mmHg 86%
    17:00 -4°C° 0 mm 1 mps 598 mmHg 87%
    18:00 -8°C° 0 mm 1 mps 597 mmHg 87%
    19:00 -8°C° 0 mm 1 mps 597 mmHg 86%
    20:00 -8°C° 0 mm 1 mps 597 mmHg 86%
    21:00 -8°C° 0 mm 1 mps 597 mmHg 85%
    22:00 -8°C° 0 mm 1 mps 597 mmHg 83%
    23:00 -8°C° 0 mm 1 mps 597 mmHg 81%

    28 February, Tuesday

    Time Temperature Precipitation Wind Pressure Humidity
    00:00 -8°C° 0 mm 1 mps 597 mmHg 79%
    01:00 -8°C° 0 mm 1 mps 598 mmHg 79%
    02:00 -7°C° 0 mm 1 mps 598 mmHg 78%
    03:00 -7°C° 0 mm 1 mps 598 mmHg 77%
    04:00 -7°C° 0 mm 1 mps 598 mmHg 77%
    05:00 -6°C° 0 mm 1 mps 599 mmHg 77%
    06:00 -6°C° 0 mm 1 mps 599 mmHg 77%
    07:00 -3°C° 0 mm 1 mps 600 mmHg 77%
    08:00 -2°C° 0 mm 1 mps 601 mmHg 77%
    09:00 0°C° 0 mm 1 mps 602 mmHg 77%
    10:00 +1°C° 0 mm 1 mps 602 mmHg 79%
    11:00 +1°C° 0 mm 1 mps 602 mmHg 80%
    12:00 +2°C° 0 mm 1 mps 602 mmHg 82%
    13:00 +2°C° 0 mm 1 mps 601 mmHg 82%
    14:00 +2°C° 0 mm 1 mps 601 mmHg 83%
    15:00 +2°C° 0 mm 1 mps 601 mmHg 83%
    16:00 0°C° 0 mm 1 mps 600 mmHg 84%
    17:00 -3°C° 0 mm 1 mps 599 mmHg 85%
    18:00 -6°C° 0 mm 1 mps 598 mmHg 85%
    19:00 -6°C° 0 mm 1 mps 598 mmHg 85%
    20:00 -6°C° 0 mm 1 mps 599 mmHg 85%
    21:00 -7°C° 0 mm 1 mps 599 mmHg 85%
    22:00 -7°C° 0 mm 1 mps 599 mmHg 84%
    23:00 -7°C° 0 mm 1 mps 599 mmHg 84%

    1 March, Wednesday

    Time Temperature Precipitation Wind Pressure Humidity
    00:00 -7°C° 0 mm 1 mps 599 mmHg 83%
    01:00 -7°C° 0 mm 1 mps 599 mmHg 83%
    02:00 -7°C° 0 mm 1 mps 599 mmHg 82%
    03:00 -7°C° 0 mm 1 mps 598 mmHg 81%
    04:00 -7°C° 0 mm 1 mps 598 mmHg 81%
    05:00 -7°C° 0 mm 1 mps 598 mmHg 81%
    06:00 -7°C° 0 mm 1 mps 598 mmHg 81%
    07:00 -4°C° 0 mm 1 mps 600 mmHg 78%
    08:00 -2°C° 0 mm 1 mps 601 mmHg 75%
    09:00 0°C° 0 mm 1 mps 602 mmHg 72%
    10:00 +1°C° 0 mm 1 mps 602 mmHg 75%
    11:00 +2°C° 0 mm 1 mps 602 mmHg 78%
    12:00 +3°C° 0 mm 1 mps 602 mmHg 81%
    13:00 +3°C° 0 mm 1 mps 601 mmHg 81%
    14:00 +3°C° 0 mm 1 mps 601 mmHg 81%
    15:00 +3°C° 0 mm 1 mps 601 mmHg 81%
    16:00 +1°C° 0 mm 1 mps 599 mmHg 81%
    17:00 -2°C° 0 mm 1 mps 598 mmHg 82%
    18:00 -4°C° 0 mm 1 mps 597 mmHg 83%
    19:00 -4°C° 0 mm 1 mps 597 mmHg 82%
    20:00 -6°C° 0 mm 1 mps 597 mmHg 81%
    21:00 -6°C° 0 mm 1 mps 597 mmHg 81%
    22:00 -6°C° 0 mm 1 mps 597 mmHg 80%
    23:00 -6°C° 0 mm 1 mps 597 mmHg 79%
    Show more